| time (UTC) | temp C | wind direction | speed KPH | gust KPH | rain 1hr cm | rain 24hr cm | rain mn cm | humidity % | barometer mb |
| 20260507201844 | 19 | 120 | 1.6 | 12.9 | 0.00 | 0.00 | 0.00 | 22 | |
| 20260507201344 | 18 | 120 | 6.4 | 11.3 | 0.00 | 0.00 | 0.00 | 20 | |
| 20260507200844 | 18 | 9 | 3.2 | 14.5 | 0.00 | 0.00 | 0.00 | 23 | |
| 20260507200344 | 18 | 37 | 8.0 | 9.7 | 0.00 | 0.00 | 0.00 | 22 | |
| 20260507195844 | 18 | 358 | 3.2 | 11.3 | 0.00 | 0.00 | 0.00 | 23 | |
| 20260507195344 | 18 | 225 | 8.0 | 8.0 | 0.00 | 0.00 | 0.00 | 23 | |
| 20260507194844 | 18 | 37 | 1.6 | 19.3 | 0.00 | 0.00 | 0.00 | 22 | |
| 20260507194345 | 18 | 329 | 0.0 | 12.9 | 0.00 | 0.00 | 0.00 | 22 | |
| 20260507193844 | 18 | 66 | 0.0 | 9.7 | 0.00 | 0.00 | 0.00 | 25 | |
| 20260507193344 | 18 | 105 | 6.4 | 11.3 | 0.00 | 0.00 | 0.00 | 23 | |
| 20260507192844 | 18 | 167 | 4.8 | 14.5 | 0.00 | 0.00 | 0.00 | 23 | |
| 20260507192344 | 18 | 14 | 1.6 | 11.3 | 0.00 | 0.00 | 0.00 | 23 | |
| 20260507191845 | 17 | 178 | 0.0 | 12.9 | 0.00 | 0.00 | 0.00 | 24 | |
| 20260507191344 | 17 | 210 | 6.4 | 17.7 | 0.00 | 0.00 | 0.00 | 24 | |
| 20260507190844 | 17 | 23 | 0.0 | 11.3 | 0.00 | 0.00 | 0.00 | 23 | |
| 20260507190346 | 17 | 7 | 0.0 | 9.7 | 0.00 | 0.00 | 0.00 | 25 | |
| 20260507190128 | 17 | 181 | 4.8 | 8.0 | 0.00 | 0.00 | 0.00 | 27 | |
| 20260507185844 | 17 | 181 | 4.8 | 8.0 | 0.00 | 0.00 | 0.00 | 27 | |
| 20260507185344 | 17 | 73 | 4.8 | 14.5 | 0.00 | 0.00 | 0.00 | 26 | |
| 20260507184844 | 17 | 112 | 9.7 | 12.9 | 0.00 | 0.00 | 0.00 | 29 | |
| 20260507184344 | 17 | 196 | 4.8 | 9.7 | 0.00 | 0.00 | 0.00 | 30 | |
| 20260507183844 | 17 | 70 | 1.6 | 11.3 | 0.00 | 0.00 | 0.00 | 29 | |
| 20260507183345 | 17 | 320 | 1.6 | 11.3 | 0.00 | 0.00 | 0.00 | 29 | |
| 20260507182844 | 16 | 87 | 1.6 | 11.3 | 0.00 | 0.00 | 0.00 | 31 | |
| 20260507182344 | 16 | 105 | 3.2 | 9.7 | 0.00 | 0.00 | 0.00 | 31 | |
| 20260507181844 | 16 | 19 | 0.0 | 9.7 | 0.00 | 0.00 | 0.00 | 30 | |
| 20260507181344 | 16 | 91 | 1.6 | 3.2 | 0.00 | 0.00 | 0.00 | 31 | |
| 20260507180844 | 16 | 140 | 1.6 | 12.9 | 0.00 | 0.00 | 0.00 | 33 | |
| 20260507180344 | 16 | 97 | 6.4 | 9.7 | 0.00 | 0.00 | 0.00 | 32 | |
| 20260507175844 | 16 | 84 | 0.0 | 1.6 | 0.00 | 0.00 | 0.00 | 32 | |
| 20260507175344 | 15 | 40 | 0.0 | 6.4 | 0.00 | 0.00 | 0.00 | 32 | |
| 20260507174844 | 15 | 151 | 4.8 | 8.0 | 0.00 | 0.00 | 0.00 | 34 | |
| 20260507174344 | 15 | 132 | 6.4 | 11.3 | 0.00 | 0.00 | 0.00 | 31 | |
| 20260507173844 | 15 | 77 | 4.8 | 11.3 | 0.00 | 0.00 | 0.00 | 31 | |
| 20260507173344 | 15 | 181 | 4.8 | 6.4 | 0.00 | 0.00 | 0.00 | 32 | |
| 20260507172844 | 15 | 50 | 3.2 | 9.7 | 0.00 | 0.00 | 0.00 | 31 | |
| 20260507172344 | 15 | 336 | 1.6 | 11.3 | 0.00 | 0.00 | 0.00 | 31 | |
| 20260507171844 | 15 | 4 | 1.6 | 9.7 | 0.00 | 0.00 | 0.00 | 30 | |
| 20260507171344 | 15 | 104 | 6.4 | 9.7 | 0.00 | 0.00 | 0.00 | 31 | |
| 20260507170844 | 15 | 146 | 0.0 | 11.3 | 0.00 | 0.00 | 0.00 | 32 | |
| 20260507170344 | 14 | 42 | 8.0 | 11.3 | 0.00 | 0.00 | 0.00 | 31 | |
| 20260507165844 | 14 | 59 | 0.0 | 6.4 | 0.00 | 0.00 | 0.00 | 29 | |
| 20260507165345 | 14 | 45 | 1.6 | 6.4 | 0.00 | 0.00 | 0.00 | 27 | |
| 20260507164845 | 14 | 49 | 0.0 | 4.8 | 0.00 | 0.00 | 0.00 | 30 | |
| 20260507164345 | 13 | 343 | 1.6 | 8.0 | 0.00 | 0.00 | 0.00 | 27 | |
| 20260507163845 | 13 | 153 | 3.2 | 9.7 | 0.00 | 0.00 | 0.00 | 29 | |
| 20260507163345 | 13 | 184 | 3.2 | 8.0 | 0.00 | 0.00 | 0.00 | 29 | |
| 20260507162845 | 13 | 127 | 1.6 | 8.0 | 0.00 | 0.00 | 0.00 | 30 | |
| 20260507162345 | 13 | 262 | 0.0 | 8.0 | 0.00 | 0.00 | 0.00 | 33 | |
| 20260507161845 | 13 | 63 | 0.0 | 8.0 | 0.00 | 0.00 | 0.00 | 32 | |
| 20260507161345 | 12 | 43 | 0.0 | 0.0 | 0.00 | 0.00 | 0.00 | 34 | |
| 20260507160845 | 12 | 43 | 0.0 | 6.4 | 0.00 | 0.00 | 0.00 | 33 | |
| 20260507160345 | 12 | 165 | 0.0 | 4.8 | 0.00 | 0.00 | 0.00 | 37 | |
| 20260507155845 | 12 | 149 | 0.0 | 4.8 | 0.00 | 0.00 | 0.00 | 39 | |
| 20260507155345 | 11 | 106 | 0.0 | 3.2 | 0.00 | 0.00 | 0.00 | 41 | |
| 20260507154845 | 11 | 105 | 0.0 | 8.0 | 0.00 | 0.00 | 0.00 | 41 | |
| 20260507154345 | 11 | 80 | 0.0 | 8.0 | 0.00 | 0.00 | 0.00 | 41 | |
| 20260507153845 | 11 | 118 | 0.0 | 4.8 | 0.00 | 0.00 | 0.00 | 42 | |
| 20260507153345 | 11 | 7 | 1.6 | 6.4 | 0.00 | 0.00 | 0.00 | 43 | |
| 20260507152845 | 11 | 129 | 0.0 | 3.2 | 0.00 | 0.00 | 0.00 | 44 | |
| 20260507152345 | 11 | 115 | 0.0 | 0.0 | 0.00 | 0.00 | 0.00 | 47 | |
| 20260507151845 | 10 | 115 | 0.0 | 8.0 | 0.00 | 0.00 | 0.00 | 47 | |
| 20260507151345 | 10 | 123 | 0.0 | 3.2 | 0.00 | 0.00 | 0.00 | 47 | |
| 20260507150845 | 10 | 137 | 0.0 | 3.2 | 0.00 | 0.00 | 0.00 | 49 | |
| 20260507150345 | 10 | 118 | 0.0 | 0.0 | 0.00 | 0.00 | 0.00 | 49 | |
| 20260507145847 | 10 | 118 | 0.0 | 0.0 | 0.00 | 0.00 | 0.00 | 43 | |
| 20260507145345 | 9 | 118 | 0.0 | 0.0 | 0.00 | 0.00 | 0.00 | 50 | |
| 20260507144846 | 8 | 118 | 0.0 | 0.0 | 0.00 | 0.00 | 0.00 | 51 | |
| 20260507144345 | 8 | 118 | 0.0 | 1.6 | 0.00 | 0.00 | 0.00 | 53 | |
| 20260507143845 | 7 | 60 | 0.0 | 0.0 | 0.00 | 0.00 | 0.00 | 57 | |
| 20260507143345 | 6 | 60 | 0.0 | 3.2 | 0.00 | 0.00 | 0.00 | 59 | |
| 20260507142845 | 4 | 327 | 0.0 | 0.0 | 0.00 | 0.00 | 0.00 | 67 | |
| 20260507142345 | 3 | 327 | 0.0 | 0.0 | 0.00 | 0.00 | 0.00 | 75 | |
| 20260507141846 | 2 | 327 | 0.0 | 0.0 | 0.00 | 0.00 | 0.00 | 79 | |
| 20260507141345 | 1 | 327 | 0.0 | 1.6 | 0.00 | 0.00 | 0.00 | 82 | |
| 20260507140845 | 1 | 329 | 1.6 | 4.8 | 0.00 | 0.00 | 0.00 | 83 | |
| 20260507140345 | 1 | 327 | 1.6 | 3.2 | 0.00 | 0.00 | 0.00 | 85 | |
| 20260507135845 | 0 | 331 | 3.2 | 3.2 | 0.00 | 0.00 | 0.00 | 85 | |
| 20260507135345 | 0 | 317 | 3.2 | 4.8 | 0.00 | 0.00 | 0.00 | 86 | |
| 20260507134845 | 0 | 324 | 4.8 | 4.8 | 0.00 | 0.00 | 0.00 | 88 | |
| 20260507134345 | 0 | 330 | 1.6 | 3.2 | 0.00 | 0.00 | 0.00 | 88 | |
| 20260507133845 | 0 | 331 | 3.2 | 6.4 | 0.00 | 0.00 | 0.00 | 88 | |
| 20260507133345 | 0 | 320 | 6.4 | 8.0 | 0.00 | 0.00 | 0.00 | 88 | |
| 20260507132845 | 0 | 316 | 6.4 | 8.0 | 0.00 | 0.00 | 0.00 | 87 | |
| 20260507132345 | 0 | 299 | 3.2 | 4.8 | 0.00 | 0.00 | 0.00 | 87 | |
| 20260507131845 | 0 | 315 | 3.2 | 6.4 | 0.00 | 0.00 | 0.00 | 87 | |
| 20260507131346 | 0 | 307 | 3.2 | 4.8 | 0.00 | 0.00 | 0.00 | 88 | |
| 20260507130845 | -1 | 305 | 0.0 | 4.8 | 0.00 | 0.00 | 0.00 | 89 | |
| 20260507130345 | -1 | 307 | 4.8 | 4.8 | 0.00 | 0.00 | 0.00 | 90 | |
| 20260507125846 | -1 | 317 | 3.2 | 6.4 | 0.00 | 0.00 | 0.00 | 90 | |
| 20260507125345 | -1 | 329 | 3.2 | 4.8 | 0.00 | 0.00 | 0.00 | 89 | |
| 20260507124845 | -1 | 296 | 4.8 | 4.8 | 0.00 | 0.00 | 0.00 | 93 | |
| 20260507124345 | -1 | 284 | 0.0 | 4.8 | 0.00 | 0.00 | 0.00 | 93 | |
| 20260507123845 | -1 | 254 | 0.0 | 3.2 | 0.00 | 0.00 | 0.00 | 95 | |
| 20260507123345 | -1 | 137 | 0.0 | 0.0 | 0.00 | 0.00 | 0.00 | 95 | |
| 20260507122845 | -1 | 137 | 0.0 | 0.0 | 0.00 | 0.00 | 0.00 | 95 | |
| 20260507122345 | -1 | 137 | 0.0 | 0.0 | 0.00 | 0.00 | 0.00 | 95 | |
| 20260507121845 | -1 | 137 | 0.0 | 0.0 | 0.00 | 0.00 | 0.00 | 95 | |
| 20260507121345 | -1 | 137 | 0.0 | 0.0 | 0.00 | 0.00 | 0.00 | 95 | |
| 20260507120846 | -1 | 137 | 0.0 | 0.0 | 0.00 | 0.00 | 0.00 | 95 | |
| 20260507120345 | -1 | 137 | 0.0 | 0.0 | 0.00 | 0.00 | 0.00 | 95 | |
| 20260507115845 | -1 | 137 | 0.0 | 0.0 | 0.00 | 0.00 | 0.00 | 95 | |
| 20260507115346 | -1 | 137 | 0.0 | 0.0 | 0.00 | 0.00 | 0.00 | 95 | |
| 20260507114845 | -1 | 137 | 0.0 | 0.0 | 0.00 | 0.00 | 0.00 | 95 | |
| 20260507114345 | -1 | 137 | 0.0 | 0.0 | 0.00 | 0.00 | 0.00 | 95 | |
| 20260507113845 | -1 | 137 | 0.0 | 0.0 | 0.00 | 0.00 | 0.00 | 95 | |
| 20260507113345 | -1 | 137 | 0.0 | 0.0 | 0.00 | 0.00 | 0.00 | 95 | |
| 20260507112845 | -1 | 137 | 0.0 | 0.0 | 0.00 | 0.00 | 0.00 | 95 | |
| 20260507112345 | -1 | 137 | 0.0 | 0.0 | 0.00 | 0.00 | 0.00 | 95 | |
| 20260507111845 | -1 | 137 | 0.0 | 0.0 | 0.00 | 0.00 | 0.00 | 95 | |
| 20260507111345 | -1 | 137 | 0.0 | 0.0 | 0.00 | 0.00 | 0.00 | 95 | |
| 20260507110845 | -1 | 137 | 0.0 | 0.0 | 0.00 | 0.00 | 0.00 | 95 | |
| 20260507110345 | -1 | 137 | 0.0 | 0.0 | 0.00 | 0.00 | 0.00 | 95 | |
| 20260507105845 | -1 | 137 | 0.0 | 0.0 | 0.00 | 0.00 | 0.00 | 95 | |
| 20260507105345 | -1 | 137 | 0.0 | 0.0 | 0.00 | 0.00 | 0.00 | 95 | |
| 20260507104845 | -1 | 137 | 0.0 | 0.0 | 0.00 | 0.00 | 0.00 | 95 | |
| 20260507104345 | -1 | 137 | 0.0 | 0.0 | 0.00 | 0.00 | 0.00 | 95 | |
| 20260507103845 | -1 | 137 | 0.0 | 0.0 | 0.00 | 0.00 | 0.00 | 95 | |
| 20260507103345 | -1 | 137 | 0.0 | 0.0 | 0.00 | 0.00 | 0.00 | 95 | |
| 20260507102845 | 0 | 137 | 0.0 | 0.0 | 0.00 | 0.00 | 0.00 | 95 | |
| 20260507102345 | 0 | 137 | 0.0 | 0.0 | 0.00 | 0.00 | 0.00 | 95 | |
| 20260507101845 | 0 | 137 | 0.0 | 0.0 | 0.00 | 0.00 | 0.00 | 95 | |
| 20260507101346 | 0 | 137 | 0.0 | 0.0 | 0.00 | 0.00 | 0.00 | 95 | |
| 20260507100845 | 0 | 137 | 0.0 | 0.0 | 0.00 | 0.00 | 0.00 | 95 | |
| 20260507100345 | 0 | 137 | 0.0 | 0.0 | 0.00 | 0.00 | 0.00 | 95 | |
| 20260507095845 | 0 | 137 | 0.0 | 0.0 | 0.00 | 0.00 | 0.00 | 95 | |
| 20260507095345 | 0 | 137 | 0.0 | 0.0 | 0.00 | 0.00 | 0.00 | 95 | |
| 20260507094845 | 0 | 137 | 0.0 | 0.0 | 0.00 | 0.00 | 0.00 | 95 | |
| 20260507094345 | 0 | 137 | 0.0 | 0.0 | 0.00 | 0.00 | 0.00 | 95 | |
| 20260507093845 | 0 | 137 | 0.0 | 0.0 | 0.00 | 0.00 | 0.00 | 95 | |
| 20260507093345 | 0 | 137 | 0.0 | 0.0 | 0.00 | 0.00 | 0.00 | 95 | |
| 20260507092846 | 0 | 137 | 0.0 | 0.0 | 0.00 | 0.00 | 0.00 | 95 | |
| 20260507092345 | 0 | 137 | 0.0 | 0.0 | 0.00 | 0.00 | 0.00 | 95 | |
| 20260507091845 | 0 | 137 | 0.0 | 0.0 | 0.00 | 0.00 | 0.00 | 96 | |
| 20260507091345 | 0 | 137 | 0.0 | 0.0 | 0.00 | 0.00 | 0.00 | 95 | |
| 20260507090845 | 0 | 137 | 0.0 | 0.0 | 0.00 | 0.00 | 0.00 | 95 | |
| 20260507090345 | 0 | 137 | 0.0 | 0.0 | 0.00 | 0.00 | 0.00 | 95 | |
| 20260507085845 | 0 | 137 | 0.0 | 0.0 | 0.00 | 0.00 | 0.00 | 95 | |
| 20260507085345 | 0 | 137 | 0.0 | 0.0 | 0.00 | 0.00 | 0.00 | 95 | |
| 20260507084845 | 0 | 137 | 0.0 | 0.0 | 0.00 | 0.00 | 0.00 | 95 | |
| 20260507084345 | 0 | 137 | 0.0 | 0.0 | 0.00 | 0.00 | 0.00 | 95 | |
| 20260507083845 | 0 | 137 | 0.0 | 0.0 | 0.00 | 0.00 | 0.00 | 95 | |
| 20260507083345 | 0 | 137 | 0.0 | 0.0 | 0.00 | 0.00 | 0.00 | 95 | |
| 20260507082846 | 0 | 137 | 0.0 | 0.0 | 0.00 | 0.00 | 0.00 | 95 | |
| 20260507082346 | 0 | 137 | 0.0 | 0.0 | 0.00 | 0.00 | 0.00 | 95 | |
| 20260507081845 | 0 | 137 | 0.0 | 0.0 | 0.00 | 0.00 | 0.00 | 94 | |
| 20260507081345 | 0 | 137 | 0.0 | 0.0 | 0.00 | 0.00 | 0.00 | 94 | |
| 20260507080845 | 0 | 137 | 0.0 | 0.0 | 0.00 | 0.00 | 0.00 | 94 | |
| 20260507080345 | 1 | 137 | 0.0 | 0.0 | 0.00 | 0.00 | 0.00 | 93 | |
| 20260507075846 | 1 | 137 | 0.0 | 0.0 | 0.00 | 0.00 | 0.00 | 93 | |
| 20260507075345 | 1 | 137 | 0.0 | 0.0 | 0.00 | 0.00 | 0.00 | 93 | |
| 20260507074845 | 1 | 137 | 0.0 | 0.0 | 0.00 | 0.00 | 0.00 | 93 | |
| 20260507074346 | 1 | 137 | 0.0 | 0.0 | 0.00 | 0.00 | 0.00 | 92 | |
| 20260507073846 | 1 | 137 | 0.0 | 0.0 | 0.00 | 0.00 | 0.00 | 93 | |
| 20260507073346 | 1 | 137 | 0.0 | 0.0 | 0.00 | 0.00 | 0.00 | 92 | |
| 20260507072846 | 2 | 137 | 0.0 | 0.0 | 0.00 | 0.00 | 0.00 | 92 | |
| 20260507072346 | 2 | 137 | 0.0 | 0.0 | 0.00 | 0.00 | 0.00 | 91 | |
| 20260507071846 | 2 | 137 | 0.0 | 0.0 | 0.00 | 0.00 | 0.00 | 91 | |
| 20260507071346 | 2 | 137 | 0.0 | 0.0 | 0.00 | 0.00 | 0.00 | 91 | |
| 20260507070846 | 2 | 137 | 0.0 | 0.0 | 0.00 | 0.00 | 0.00 | 90 | |
| 20260507070346 | 2 | 137 | 0.0 | 0.0 | 0.00 | 0.00 | 0.00 | 90 | |
| 20260507065846 | 2 | 137 | 0.0 | 0.0 | 0.00 | 0.00 | 0.00 | 90 | |
| 20260507065346 | 2 | 137 | 0.0 | 0.0 | 0.00 | 0.00 | 0.00 | 90 | |
| 20260507064846 | 3 | 137 | 0.0 | 0.0 | 0.00 | 0.00 | 0.00 | 90 | |
| 20260507064346 | 3 | 137 | 0.0 | 0.0 | 0.00 | 0.00 | 0.00 | 89 | |
| 20260507063846 | 3 | 137 | 0.0 | 0.0 | 0.00 | 0.00 | 0.00 | 89 | |
| 20260507063346 | 3 | 137 | 0.0 | 0.0 | 0.00 | 0.00 | 0.00 | 89 | |
| 20260507062846 | 3 | 137 | 0.0 | 0.0 | 0.00 | 0.00 | 0.00 | 89 | |
| 20260507062346 | 3 | 137 | 0.0 | 0.0 | 0.00 | 0.00 | 0.00 | 89 | |
| 20260507061846 | 3 | 137 | 0.0 | 0.0 | 0.00 | 0.00 | 0.00 | 89 | |
| 20260507061346 | 3 | 137 | 0.0 | 0.0 | 0.00 | 0.00 | 0.00 | 89 | |
| 20260507060846 | 3 | 137 | 0.0 | 0.0 | 0.00 | 0.00 | 0.00 | 89 | |
| 20260507060346 | 3 | 137 | 0.0 | 0.0 | 0.00 | 0.00 | 0.00 | 89 | |
| 20260507055846 | 3 | 137 | 0.0 | 0.0 | 0.00 | 0.00 | 0.00 | 89 | |
| 20260507055346 | 3 | 137 | 0.0 | 3.2 | 0.00 | 0.00 | 0.00 | 89 | |
| 20260507054846 | 3 | 143 | 3.2 | 3.2 | 0.00 | 0.00 | 0.00 | 89 | |
| 20260507054346 | 3 | 255 | 0.0 | 0.0 | 0.00 | 0.00 | 0.00 | 89 | |
| 20260507053846 | 3 | 255 | 0.0 | 0.0 | 0.00 | 0.00 | 0.00 | 89 | |
| 20260507053346 | 3 | 255 | 0.0 | 4.8 | 0.00 | 0.00 | 0.00 | 89 | |
| 20260507052846 | 3 | 213 | 0.0 | 0.0 | 0.00 | 0.00 | 0.00 | 90 | |
| 20260507052346 | 3 | 213 | 0.0 | 0.0 | 0.00 | 0.00 | 0.00 | 91 | |
| 20260507051846 | 3 | 213 | 0.0 | 0.0 | 0.00 | 0.00 | 0.00 | 91 | |
| 20260507051346 | 3 | 213 | 0.0 | 0.0 | 0.00 | 0.00 | 0.00 | 91 | |
| 20260507050846 | 3 | 213 | 0.0 | 0.0 | 0.00 | 0.00 | 0.00 | 91 | |
| 20260507050346 | 3 | 213 | 0.0 | 4.8 | 0.00 | 0.03 | 0.00 | 91 | |
| 20260507045846 | 3 | 209 | 0.0 | 3.2 | 0.00 | 0.03 | 0.00 | 91 | |
| 20260507045346 | 3 | 194 | 0.0 | 0.0 | 0.00 | 0.03 | 0.00 | 91 | |
| 20260507044846 | 3 | 194 | 0.0 | 0.0 | 0.00 | 0.03 | 0.00 | 91 | |
| 20260507044346 | 3 | 194 | 0.0 | 0.0 | 0.00 | 0.03 | 0.00 | 90 | |
| 20260507043846 | 3 | 194 | 0.0 | 4.8 | 0.00 | 0.03 | 0.00 | 90 | |
| 20260507043346 | 3 | 199 | 0.0 | 1.6 | 0.00 | 0.03 | 0.00 | 90 | |
| 20260507042846 | 3 | 203 | 0.0 | 6.4 | 0.00 | 0.03 | 0.00 | 89 | |
| 20260507042346 | 3 | 127 | 0.0 | 8.0 | 0.00 | 0.03 | 0.00 | 89 | |
| 20260507041846 | 3 | 177 | 0.0 | 4.8 | 0.00 | 0.03 | 0.00 | 90 | |
| 20260507041346 | 3 | 229 | 3.2 | 4.8 | 0.00 | 0.03 | 0.00 | 90 | |
| 20260507040846 | 3 | 156 | 1.6 | 8.0 | 0.00 | 0.03 | 0.00 | 90 | |
| 20260507040346 | 3 | 149 | 3.2 | 6.4 | 0.00 | 0.03 | 0.00 | 90 | |
| 20260507035846 | 3 | 158 | 1.6 | 6.4 | 0.00 | 0.03 | 0.00 | 89 | |
| 20260507035346 | 3 | 195 | 3.2 | 4.8 | 0.00 | 0.03 | 0.00 | 89 | |
| 20260507034846 | 3 | 215 | 0.0 | 8.0 | 0.00 | 0.03 | 0.00 | 89 | |
| 20260507034346 | 3 | 260 | 0.0 | 0.0 | 0.00 | 0.03 | 0.00 | 89 | |
| 20260507033846 | 3 | 260 | 0.0 | 6.4 | 0.00 | 0.03 | 0.00 | 89 | |
| 20260507033346 | 3 | 212 | 0.0 | 8.0 | 0.00 | 0.03 | 0.00 | 88 | |
| 20260507032846 | 3 | 36 | 3.2 | 6.4 | 0.00 | 0.03 | 0.00 | 89 | |
| 20260507032346 | 3 | 286 | 0.0 | 0.0 | 0.00 | 0.03 | 0.00 | 89 | |
| 20260507031846 | 3 | 286 | 0.0 | 3.2 | 0.00 | 0.03 | 0.00 | 89 | |
| 20260507031346 | 3 | 251 | 1.6 | 4.8 | 0.00 | 0.03 | 0.00 | 89 | |
| 20260507030846 | 3 | 216 | 0.0 | 0.0 | 0.00 | 0.03 | 0.00 | 89 | |
| 20260507030346 | 3 | 216 | 0.0 | 0.0 | 0.00 | 0.10 | 0.00 | 89 | |
| 20260507025846 | 4 | 216 | 0.0 | 0.0 | 0.00 | 0.10 | 0.00 | 88 | |
| 20260507025346 | 4 | 216 | 0.0 | 0.0 | 0.00 | 0.10 | 0.00 | 88 | |
| 20260507024846 | 4 | 216 | 0.0 | 0.0 | 0.00 | 0.10 | 0.00 | 88 | |
| 20260507024346 | 4 | 216 | 0.0 | 0.0 | 0.00 | 0.10 | 0.00 | 88 | |
| 20260507023846 | 4 | 216 | 0.0 | 0.0 | 0.00 | 0.10 | 0.00 | 87 | |
| 20260507023346 | 4 | 216 | 0.0 | 1.6 | 0.00 | 0.10 | 0.00 | 88 | |
| 20260507022847 | 4 | 185 | 1.6 | 3.2 | 0.00 | 0.10 | 0.00 | 88 | |
| 20260507022346 | 4 | 241 | 0.0 | 4.8 | 0.00 | 0.10 | 0.00 | 87 | |
| 20260507021846 | 5 | 181 | 4.8 | 14.5 | 0.00 | 0.10 | 0.00 | 88 | |
| 20260507021346 | 5 | 226 | 3.2 | 12.9 | 0.00 | 0.10 | 0.00 | 87 | |
| 20260507020846 | 5 | 223 | 6.4 | 9.7 | 0.00 | 0.10 | 0.00 | 86 | |
| 20260507020346 | 5 | 201 | 6.4 | 8.0 | 0.00 | 0.10 | 0.00 | 86 | |
| 20260507015846 | 5 | 338 | 0.0 | 8.0 | 0.00 | 0.10 | 0.00 | 85 | |
| 20260507015346 | 5 | 209 | 4.8 | 4.8 | 0.00 | 0.10 | 0.00 | 84 | |
| 20260507014846 | 5 | 258 | 0.0 | 0.0 | 0.00 | 0.10 | 0.00 | 83 | |
| 20260507014346 | 5 | 258 | 0.0 | 0.0 | 0.00 | 0.10 | 0.00 | 82 | |
| 20260507013846 | 5 | 258 | 0.0 | 0.0 | 0.00 | 0.10 | 0.00 | 82 | |
| 20260507013347 | 5 | 258 | 0.0 | 0.0 | 0.00 | 0.10 | 0.00 | 82 | |
| 20260507012847 | 5 | 258 | 0.0 | 0.0 | 0.00 | 0.10 | 0.00 | 81 | |
| 20260507012346 | 5 | 258 | 0.0 | 3.2 | 0.00 | 0.10 | 0.00 | 82 | |
| 20260507011847 | 5 | 74 | 0.0 | 0.0 | 0.00 | 0.10 | 0.00 | 81 | |
| 20260507011346 | 6 | 74 | 0.0 | 0.0 | 0.00 | 0.10 | 0.00 | 80 | |
| 20260507010846 | 6 | 74 | 0.0 | 0.0 | 0.00 | 0.10 | 0.00 | 80 | |
| 20260507010346 | 6 | 74 | 0.0 | 0.0 | 0.00 | 0.10 | 0.00 | 82 | |
| 20260507005846 | 6 | 7 | 0.0 | 6.4 | 0.00 | 0.10 | 0.00 | 81 | |
| 20260507005346 | 6 | 39 | 3.2 | 6.4 | 0.00 | 0.10 | 0.00 | 80 | |
| 20260507004846 | 7 | 19 | 0.0 | 9.7 | 0.00 | 0.10 | 0.00 | 74 | |
| 20260507004346 | 7 | 358 | 1.6 | 11.3 | 0.00 | 0.10 | 0.00 | 71 | |
| 20260507003846 | 9 | 305 | 0.0 | 9.7 | 0.00 | 0.10 | 0.00 | 62 | |
| 20260507003346 | 10 | 225 | 4.8 | 8.0 | 0.00 | 0.10 | 0.00 | 57 | |
| 20260507002846 | 10 | 274 | 8.0 | 11.3 | 0.00 | 0.10 | 0.00 | 56 | |
| 20260507002346 | 10 | 336 | 6.4 | 14.5 | 0.00 | 0.10 | 0.00 | 57 | |
| 20260507001846 | 10 | 281 | 6.4 | 17.7 | 0.00 | 0.10 | 0.00 | 57 | |
| 20260507001346 | 10 | 329 | 8.0 | 14.5 | 0.00 | 0.10 | 0.00 | 55 | |
| 20260507000846 | 11 | 77 | 8.0 | 22.5 | 0.00 | 0.10 | 0.00 | 50 | |
| 20260507000346 | 11 | 317 | 3.2 | 27.4 | 0.00 | 0.10 | 0.00 | 49 | |
| 20260506235846 | 11 | 358 | 4.8 | 29.0 | 0.00 | 0.10 | 0.00 | 47 | |
| 20260506235346 | 11 | 355 | 0.0 | 20.9 | 0.00 | 0.10 | 0.00 | 48 | |
| 20260506234846 | 11 | 202 | 3.2 | 14.5 | 0.00 | 0.10 | 0.00 | 49 | |
| 20260506234346 | 11 | 319 | 0.0 | 8.0 | 0.00 | 0.10 | 0.00 | 48 | |
| 20260506233846 | 11 | 352 | 4.8 | 9.7 | 0.00 | 0.10 | 0.00 | 48 | |
| 20260506233347 | 12 | 21 | 0.0 | 12.9 | 0.00 | 0.10 | 0.00 | 47 | |
| 20260506232846 | 12 | 9 | 4.8 | 14.5 | 0.00 | 0.10 | 0.00 | 46 | |
| 20260506232346 | 12 | 306 | 0.0 | 11.3 | 0.00 | 0.10 | 0.00 | 51 | |
| 20260506231846 | 11 | 326 | 1.6 | 17.7 | 0.00 | 0.10 | 0.00 | 50 | |
| 20260506231346 | 11 | 236 | 11.3 | 12.9 | 0.00 | 0.10 | 0.00 | 51 | |
| 20260506230846 | 11 | 352 | 3.2 | 9.7 | 0.00 | 0.10 | 0.00 | 53 | |
| 20260506230346 | 11 | 261 | 0.0 | 9.7 | 0.00 | 0.10 | 0.00 | 56 | |
| 20260506225846 | 11 | 191 | 0.0 | 11.3 | 0.00 | 0.10 | 0.00 | 56 | |
| 20260506225346 | 12 | 307 | 3.2 | 16.1 | 0.00 | 0.10 | 0.00 | 55 | |
| 20260506224847 | 13 | 230 | 0.0 | 16.1 | 0.00 | 0.10 | 0.00 | 46 | |
| 20260506224346 | 13 | 234 | 6.4 | 17.7 | 0.00 | 0.10 | 0.00 | 38 | |
| 20260506223846 | 13 | 229 | 8.0 | 16.1 | 0.00 | 0.10 | 0.00 | 38 | |
| 20260506223347 | 13 | 210 | 4.8 | 9.7 | 0.00 | 0.10 | 0.00 | 38 | |
| 20260506222847 | 13 | 334 | 3.2 | 16.1 | 0.00 | 0.10 | 0.00 | 38 | |
| 20260506222347 | 13 | 237 | 8.0 | 22.5 | 0.00 | 0.10 | 0.00 | 37 | |
| 20260506221847 | 13 | 322 | 3.2 | 22.5 | 0.00 | 0.10 | 0.00 | 37 | |
| 20260506221347 | 13 | 279 | 0.0 | 19.3 | 0.00 | 0.10 | 0.00 | 37 | |
| 20260506220847 | 13 | 344 | 3.2 | 22.5 | 0.00 | 0.10 | 0.00 | 40 | |
| 20260506220347 | 12 | 327 | 0.0 | 19.3 | 0.00 | 0.10 | 0.00 | 43 | |
| 20260506215847 | 13 | 270 | 0.0 | 27.4 | 0.00 | 0.10 | 0.00 | 41 | |
| 20260506215347 | 14 | 260 | 3.2 | 30.6 | 0.00 | 0.10 | 0.00 | 38 | |
| 20260506214847 | 14 | 274 | 6.4 | 16.1 | 0.00 | 0.10 | 0.00 | 36 | |
| 20260506214347 | 14 | 14 | 0.0 | 14.5 | 0.00 | 0.10 | 0.00 | 38 | |
| 20260506213847 | 14 | 344 | 4.8 | 24.1 | 0.00 | 0.10 | 0.00 | 37 | |
| 20260506213347 | 14 | 120 | 14.5 | 19.3 | 0.00 | 0.10 | 0.00 | 36 | |
| 20260506212847 | 14 | 330 | 9.7 | 14.5 | 0.00 | 0.10 | 0.00 | 40 | |
| 20260506212347 | 14 | 192 | 0.0 | 14.5 | 0.00 | 0.10 | 0.00 | 42 | |
| 20260506211847 | 15 | 306 | 11.3 | 17.7 | 0.00 | 0.10 | 0.00 | 43 | |
| 20260506211347 | 14 | 1 | 1.6 | 12.9 | 0.00 | 0.10 | 0.00 | 41 | |
| 20260506210847 | 15 | 293 | 1.6 | 17.7 | 0.00 | 0.10 | 0.00 | 36 | |
| 20260506210347 | 15 | 275 | 8.0 | 17.7 | 0.00 | 0.10 | 0.00 | 39 | |
| 20260506205847 | 14 | 109 | 0.0 | 17.7 | 0.00 | 0.10 | 0.00 | 38 | |
| 20260506205347 | 13 | 322 | 4.8 | 17.7 | 0.00 | 0.10 | 0.00 | 43 | |
| 20260506204847 | 13 | 216 | 1.6 | 17.7 | 0.00 | 0.10 | 0.00 | 42 | |
| 20260506204347 | 13 | 319 | 11.3 | 19.3 | 0.00 | 0.10 | 0.00 | 41 | |
| 20260506203847 | 13 | 258 | 1.6 | 17.7 | 0.00 | 0.10 | 0.00 | 41 | |
| 20260506203347 | 14 | 272 | 0.0 | 16.1 | 0.00 | 0.10 | 0.00 | 42 | |
| 20260506202847 | 13 | 210 | 0.0 | 6.4 | 0.00 | 0.10 | 0.00 | 41 | |
| 20260506202347 | 13 | 12 | 0.0 | 16.1 | 0.00 | 0.10 | 0.00 | 44 |